Tracking 29493 objects as of 8-Sep-2024
HD Live streaming from Space Station
objects crossing your sky now

FENGYUN 1C DEB

Track FENGYUN 1C DEB now!
10-day predictions


NORAD ID: 35165
Int'l Code: 1999-025DMV
Perigee: 797.0 km
Apogee: 830.8 km
Inclination: 98.9 °
Period: 101.0 minutes
Semi major axis: 7184 km
RCS: 0.0024 m2 (small)
Launch date: May 10, 1999
Source: People's Republic of China (PRC)
Launch site: Taiyaun Space Center, China (TSC)

Note: This is SATELLITE DEBRIS
Your satellite tracking list
Your tracking list is empty




NASA's NSSDC Master Catalog

Two Line Element Set (TLE):
1 35165U 99025DMV 24251.16309696  .00014156  00000-0  59805-2 0  9995
2 35165  98.8961 327.3997 0023514 323.4720  36.4854 14.25502002831226
Source of the keplerian elements: AFSPC